Regional Weather Roundup
Issued by NWS

Home | Current Version | Previous Version | Graphics & Text | Print | Product List | Glossary On
Versions: 1 2 3 4 5 6 7 8 9 10 11 12 13 14 15 16 17 18 19 20 21 22 23 24 25 26 27 28 29 30 31 32 33 34 35 36 37 38 39 40 41 42 43 44 45 46 47 48 49
000
ASUS45 KBOU 231907
RWRCO

WEATHER ROUNDUP FOR COLORADO
NATIONAL WEATHER SERVICE DENVER/BOULDER CO
1200 PM MST SUN NOV 23 2014

NOTE: "FAIR" INDICATES FEW OR NO CLOUDS BELOW 12000 FEET WITH NO
SIGNIFICANT WEATHER AND/OR OBSTRUCTIONS TO VISIBILITY.

COZ001>005-013-030-031-232000-
...NORTHWEST COLORADO...

CITY           SKY/WX    TMP DP  RH WIND       PRES   REMARKS
CRAIG          FLURRIES  30  22  72 W16       29.96R WCI  19
HAYDEN         CLOUDY    27  21  80 W22G28    29.91F VSB 1/2 WCI  12
MEEKER         LGT SNOW  30  24  78 NW7       29.97F WCI  23
MOUNT WERNER   NOT AVBL
STEAMBOAT SPGS CLOUDY    26  23  89 SW9       29.88F WCI  16
WALDEN         CLOUDY    23  18  80 NW9       29.83F WCI  13
$$

COZ006>008-011-232000-
...WEST CENTRAL VALLEYS...

CITY           SKY/WX    TMP DP  RH WIND       PRES   REMARKS
GRAND JUNCTION PTSUNNY   37  24  59 NW14      30.01S
MONTROSE       CLOUDY    34  25  69 NW24G30   29.98S WCI  21
EAGLE          PTSUNNY   32  27  80 W7        29.91F WCI  26
RIFLE          CLOUDY    33  28  81 NW3       29.96F
DELTA          CLOUDY    38  27  62 W22       29.96S
NUCLA          CLOUDY    36  19  51 NW23      30.03S
$$

COZ017>023-064>068-232000-
...SOUTHWEST COLORADO...

CITY           SKY/WX    TMP DP  RH WIND       PRES   REMARKS
DURANGO        SUNNY     40  15  36 W18G25    29.82F
CORTEZ         CLOUDY    37  16  42 NW20G26   29.97F
PAGOSA SPRINGS CLOUDY    40   2  20 N8G16     29.78F
TELLURIDE      SNOW      20  17  88 W17G26    29.92S VSB 1/4 WCI   6
WOLF CREEK PAS MOSUNNY   16   3  57 MISG      29.79S
$$

COZ009-010-012-014-032>034-037-058>063-232000-
...CENTRAL COLORADO...

CITY           SKY/WX    TMP DP  RH WIND       PRES   REMARKS
ASPEN          LGT SNOW  27  18  69 N10G20    29.87S WCI  17
BUENA VISTA    MOSUNNY   34   8  33 NW22G31   29.76F WCI  22
COPPER MTN     CLOUDY    14   9  79 W21G30    29.75F WCI  -4
BERTHOUD PASS  SNOW       5   1  85 NW32G43   29.70S VSB<1/4 WCI -20
COTTONWOOD PAS PTSUNNY   28   5  37 W17G28    29.76F WCI  16
GUNNISON       MOSUNNY   30  12  47 S6        29.86F WCI  24
KREMMLING      CLOUDY    30  16  55 NW14      29.86F WCI  20
LEADVILLE      CLOUDY    19  10  68 W14       29.78F WCI   6
MONARCH PASS   CLOUDY    12  10  92 MISG      29.86R
SALIDA         MOSUNNY   36  12  37 NW7       29.84F
SUNLIGHT       CLOUDY   N/A N/A N/A CALM      29.88F
WILKERSON PASS PTSUNNY   19   1  45 NW12G22   29.76F WCI   7
$$

COZ069>075-232000-
...SAN LUIS VALLEY/SANGRE DE CRISTO MOUNTAINS...

CITY           SKY/WX    TMP DP  RH WIND       PRES   REMARKS
ALAMOSA        MOSUNNY   38   8  29 NW20      29.76S
LA VETA PASS   SNOW      21  18  86 NE6       29.76F VSB 1/2 WCI  14
SAGUACHE       PTSUNNY   32  14  47 NW24      29.78F WCI  19
$$

COZ035-036-038>040-232000-
...NORTHERN COLORADO FRONT RANGE...

CITY           SKY/WX    TMP DP  RH WIND       PRES   REMARKS
DENVER INTL AP PTSUNNY   44  11  26 N25G37    29.75F
DMNS CITY PARK   N/A     43  11  27 N6G15     29.76F
AURORA         PTSUNNY   43  12  28 N17G24    29.77F
FRONT RANGE AP PTSUNNY   45  16  31 N20G25    29.76F
ERIE MUNI ARPT CLOUDY    44  12  27 N15G21    29.76F
BOULDER MUN AP CLOUDY    43  18  36 SE5       29.76F
CENTENNIAL     PTSUNNY   41  15  35 N14G21    29.77F
BROOMFIELD     NOT AVBL
FORT COLLINS   MOSUNNY   43  12  28 N24G31    29.77F
LONGMONT       PTSUNNY   45  15  30 NE8       29.79S
$$

COZ041-046-047-076>085-087-088-232000-
...PIKES PEAK/PALMER DIVIDE AND SOUTHERN FOOTHILLS...

CITY           SKY/WX    TMP DP  RH WIND       PRES   REMARKS
COLO. SPRINGS  CLOUDY    37  17  44 N17       29.77F
A. F. ACADEMY  PTSUNNY   33  21  61 N12       29.77F WCI  24
ELLICOTT       NOT AVBL
FALCON         NOT AVBL
FORT CARSON    CLOUDY    37  21  50 N18       29.76F
LIMON          CLOUDY    37  16  42 N24       29.76S
MONUMENT HILL  PTSUNNY   30  19  64 N8        29.76F WCI  23
TRINIDAD       LGT SNOW  30  28  92 NW8       29.81F VSB 1   WCI  22
$$

COZ042>045-048>051-090-091-232000-
...NORTHEAST COLORADO...

CITY           SKY/WX    TMP DP  RH WIND       PRES   REMARKS
GREELEY ARPT   SUNNY     46  12  25 N29G36    29.77F
AKRON          MOSUNNY   42  13  30 N29G41    29.75F
BURLINGTON     PTSUNNY   43  11  27 N31G40    29.70F
WRAY           CLOUDY    48  11  22 N33G39    29.73F
STERLING       MOSUNNY   46  19  34 N29G36    29.76F
HOLYOKE        CLOUDY    46  12  25 N29G40    29.73F
FORT MORGAN    MOSUNNY   43  13  30 N23G30    29.78F
$$

COZ086-089-092>099-232000-
...SOUTHEAST COLORADO...

CITY           SKY/WX    TMP DP  RH WIND       PRES   REMARKS
PUEBLO         CLOUDY    41  20  43 CALM      29.80F
LA JUNTA       CLOUDY    44  17  33 N16       29.78F
LAMAR          CLOUDY    48  13  24 N20G35    29.72S
SPRINGFIELD      N/A     42  12  29 N31G38    29.70F
$$



USA.gov is the U.S. government's official web portal to all federal, state and local government web resources and services.